Regional Weather Roundup
Issued by NWS Little Rock, AR

Home | Current Version | Previous Version | Graphics & Text | Print | Product List | Glossary On
Versions: 1 2 3 4 5 6 7 8 9 10 11 12 13 14 15 16 17 18 19 20 21 22 23 24 25 26 27 28 29 30 31 32 33 34 35 36 37 38 39 40 41 42 43 44 45 46 47 48 49
000
ASUS44 KLZK 230305
RWRLZK

WEATHER ROUNDUP FOR ARKANSAS
NATIONAL WEATHER SERVICE LITTLE ROCK AR
1000 PM CDT MON SEP 22 2014

NOTE: "FAIR" INDICATES FEW OR NO CLOUDS BELOW 12,000 FEET WITH NO
SIGNIFICANT WEATHER AND/OR OBSTRUCTIONS TO VISIBILITY.

ARZ001-003-010-029-230400-
NORTHWEST ARKANSAS

CITY           SKY/WX    TMP DP  RH WIND       PRES   REMARKS
FAYETTEVILLE   CLEAR     54  54 100 CALM      30.24R
FORT SMITH     CLEAR     65  55  70 NE6       30.19R
HARRISON       CLEAR     56  53  90 CALM      30.25R
BENTONVILLE    CLEAR     63  50  63 E3        30.24S
ROGERS         CLEAR     60  53  77 E3        30.25R
SILOAM SPGS    CLEAR     61  48  63 E5        30.24S
HIGHFILL       CLEAR     59  53  80 N3        30.24R
$$

ARZ004-005-016-230400-
NORTH CENTRAL ARKANSAS

CITY           SKY/WX    TMP DP  RH WIND       PRES   REMARKS
BATESVILLE     CLEAR     61  48  63 CALM      30.22S
FLIPPIN        CLEAR     57  48  72 CALM      30.24R
MTN HOME       CLEAR     60  52  74 CALM      30.24R
$$

ARZ040-041-230400-
WEST CENTRAL ARKANSAS

CITY           SKY/WX    TMP DP  RH WIND       PRES   REMARKS
MENA             N/A     59  55  88 CALM        N/A
MOUNT IDA      CLEAR     59  56  89 CALM      30.18S
$$

ARZ009-017-025-026-028-230400-
NORTHEAST ARKANSAS

CITY           SKY/WX    TMP DP  RH WIND       PRES   REMARKS
CORNING          N/A     59  50  72 NE6       30.24R
JONESBORO      CLEAR     60  50  69 N5        30.22R
NEWPORT        CLEAR     60  52  75 NW7       30.23R
WALNUT RIDGE   CLEAR     59  48  67 N3        30.22R
BLYTHEVILLE    CLEAR     58  51  78 NE6       30.22S
$$

ARZ022-023-033-042-044-230400-
CENTRAL ARKANSAS

CITY           SKY/WX    TMP DP  RH WIND       PRES   REMARKS
LITTLE ROCK    PTCLDY    64  51  62 NE5       30.20R
N LITTLE ROCK  PTCLDY    64  53  68 NE7       30.20R
JACKSONVILLE   CLEAR     61  52  71 NE3       30.21R
SEARCY         CLEAR     62  49  62 NE6       30.22R
HOT SPRINGS    CLEAR     66  53  63 CALM      30.20R
RUSSELLVILLE   CLEAR     59  55  87 S3        30.21R
CLINTON        FAIR      57  55  94 CALM      30.24R
$$

ARZ036-230400-
EAST ARKANSAS

CITY           SKY/WX    TMP DP  RH WIND       PRES   REMARKS
WEST MEMPHIS   CLEAR     61  52  72 N5        30.19R
$$

ARZ050-053-066-070-073-230400-
SOUTHWEST ARKANSAS

CITY           SKY/WX    TMP DP  RH WIND       PRES   REMARKS
ARKADELPHIA    FAIR      63  59  87 NE3       30.19R
CAMDEN         CLEAR     59  54  82 NE3       30.18R
TEXARKANA      CLEAR     63  55  75 CALM      30.17R
EL DORADO      CLEAR     66  54  65 NE6       30.17R
DE QUEEN       CLEAR     60  58  92 CALM      30.17R
$$

ARZ056-057-069-230400-
SOUTHEAST ARKANSAS

CITY           SKY/WX    TMP DP  RH WIND       PRES   REMARKS
PINE BLUFF     CLEAR     63  53  70 N6        30.20R
STUTTGART      CLEAR     59  52  77 N9        30.20S
MONTICELLO     CLEAR     65  53  65 CALM      30.17R

$$




USA.gov is the U.S. government's official web portal to all federal, state and local government web resources and services.